sat.trackr.live / text

‹ back to catalog

STARLINK-2097

NORAD 47377 · 2021-005AE

PAYLOAD ACTIVE UNKNOWN

§ Identity

Operator
Country
US
Launch date
2021-01-20
Launch site
AFETR
Launch vehicle
Mass (kg)
RCS (m²)

Purposes: comms

External: N2YO · Heavens-Above · Gunter

§ Orbital elements

Epoch: 2026-05-25T02:09:53.406144Z

Period
94.01 min
Inclination
53.1599°
Eccentricity
0.0001201
Mean motion
15.31715839 rev/d
Perigee alt
469.9 km
Apogee alt
471.5 km
Semi-major
6,848.8 km
B*
2.4605e-4
RAAN
70.9473°
Arg perigee
95.2754°
Mean anomaly
264.8384°
Rev number
29,467

§ Raw data

STARLINK-20971 47377U 21005AE  26145.09020146  .00007281  00000+0  24605-3 0  99932 47377  53.1599  70.9473 0001201  95.2754 264.8384 15.31715839294674

JSON: /api/v1/satellites/47377 · /tle

For live sub-satellite position, see the globe view (requires WebGL).

§ Visibility from observer

Set your observer location to see the next 7 days of passes ≥ 10°. The values pass through the URL so the page stays shareable.

No JS? Fill the form by hand. The geolocation button needs JavaScript.